Preview of NWS' New Version of Forecast
This preview is not operational and should not be used for support decisions.

Regional Weather Roundup (RWR)

Issued by Gray - Portland, ME (GYX)

                            
000
ASUS41 KGYX 240005
RWRGYX
WEATHER ROUNDUP FOR MAINE AND NEW HAMPSHIRE
NATIONAL WEATHER SERVICE GRAY ME
800 PM EDT SUN JUN 23 2019

MEZ002-005-006-010-012-015-018-020-021-024-026-027-029-240100-
MAINE
  
CITY           SKY/WX    TMP DP  RH WIND       PRES   REMARKS
PORTLAND       FAIR      78  46  32 NW12      29.72R                  
6HR MIN TEMP:  78; 6HR MAX TEMP:  84;                                

SANFORD        FAIR      76  48  37 W6        29.75R                  
BAR HARBOR     CLOUDY    61  56  83 CALM      29.67F                  
WISCASSET      FAIR      77  47  34 NW7       29.70R                  
6HR MIN TEMP:  76; 6HR MAX TEMP:  83;                                

ROCKLAND       MOCLDY    71  55  56 CALM      29.67R                  
FRYEBURG       FAIR      76  43  30 W8        29.75S                  
6HR MIN TEMP:  76; 6HR MAX TEMP:  82;                                

LEWISTONAUBURN FAIR      77  48  35 NW12      29.72R                  
AUGUSTA        FAIR      76  49  38 NW10G20   29.69S                  
6HR MIN TEMP:  76; 6HR MAX TEMP:  81;                                

WATERVILLE     FAIR      76  49  38 NW8G16    29.66R                  
BANGOR         MOCLDY    62  58  86 CALM      29.67S                  
6HR MIN TEMP:  62; 6HR MAX TEMP:  83; 6HR PCP:  0.10;                

GREENVILLE       N/A     67  48  50 NW13      29.69R                  
6HR MIN TEMP:  64; 6HR MAX TEMP:  75; 6HR PCP:  0.02;                

MILLINOCKET    FAIR      73  43  33 N7        29.67R                  
6HR MIN TEMP:  71; 6HR MAX TEMP:  81; 6HR PCP:  0.02;                

HOULTON        FAIR      66  39  37 N12       29.65R                  
6HR MIN TEMP:  66; 6HR MAX TEMP:  77;                                

PRESQUE ISLE   FAIR      64  39  39 N12       29.69R                  
6HR MIN TEMP:  64; 6HR MAX TEMP:  75;                                

FRENCHVILLE    FAIR      64  34  32 N14G23    29.69R                  
6HR MIN TEMP:  64; 6HR MAX TEMP:  73;                                

CARIBOU        FAIR      64  38  38 N10       29.67R                  
6HR MIN TEMP:  64; 6HR MAX TEMP:  75;                                

$$

NHZ002-005-008-009-011-012-014-240100-
NEW HAMPSHIRE
  
CITY           SKY/WX    TMP DP  RH WIND       PRES   REMARKS
PORTSMOUTH     MOCLDY    77  49  36 W6        29.72S                  
ROCHESTER      FAIR      79  45  29 NW8       29.74S                  
6HR MIN TEMP:  79; 6HR MAX TEMP:  84;                                

NASHUA         FAIR      79  53  40 W6        29.77S                  
MANCHESTER     FAIR      81  49  32 SW6       29.75S                  
6HR MIN TEMP:  81; 6HR MAX TEMP:  85;                                

CONCORD        FAIR      78  48  34 NW7       29.76S                  
6HR MIN TEMP:  78; 6HR MAX TEMP:  84;                                

LACONIA        FAIR      77  46  33 VRB5      29.78R                  
PLYMOUTH       FAIR      76  43  30 NW8       29.77R                  
BERLIN         FAIR      73  43  33 NW5       29.77S                  
6HR MIN TEMP:  73; 6HR MAX TEMP:  79;                                

WHITEFIELD     FAIR      72  42  34 W7        29.79S                  
6HR MIN TEMP:  72; 6HR MAX TEMP:  78;                                

JAFFREY        FAIR      77  52  41 W6        29.82F                  
6HR MIN TEMP:  77; 6HR MAX TEMP:  81;                                

KEENE          FAIR      77  56  48 W7        29.80S                  
LEBANON        FAIR      80  46  30 NW10      29.78F                  
6HR MIN TEMP:  80; 6HR MAX TEMP:  85;                                

MT WASHINGTON  NOT AVBL                                               
$$

VTZ005-007-008-240100-
VERMONT
  
CITY           SKY/WX    TMP DP  RH WIND       PRES   REMARKS
ST JOHNSBURY     N/A     73  45  36 MISG      29.77F                  
MONTPELIER     FAIR      73  45  36 NW14G23   29.85F                  
BURLINGTON     FAIR      78  45  30 NW10      29.80S                  
$$

MAZ007-012-024-CTZ003-RIZ002-NYZ038-NYZ072-240100-
SOUTHERN NEW ENGLAND AND NY
  
CITY           SKY/WX    TMP DP  RH WIND       PRES   REMARKS
BOSTON         MOCLDY    83  52  34 W14       29.76S                  
WORCESTER      FAIR      74  54  49 W9        29.83F                  
NANTUCKET      FAIR      64  57  78 W16       29.81F                  
PROVIDENCE     FAIR      79  62  56 W10       29.80F                  
HARTFORD       FAIR      80  50  34 W7        29.82F                  
ALBANY         FAIR      77  50  38 W15G21    29.84F                  
NEW YORK CITY  FAIR      84  50  30 W10G18    29.85F                  
$$

ANZ081-ANZ082-ANZ150-NHZ014-MEZ023>029-240100-
COASTAL MARINE OBSERVATIONS
  
STATION/POSITION TIME  TEMP    WIND        PRES    WAVE
                       AIR SEA DIR/SP/G            HT/PER
                 (UTC) (F)     (DEG/KT/KT) (MB)    (FT/S)
ISLE OF SHOALS   2300   81     280/ 17/ 18 1006.1R
JEFFREYS LEDGE   2338      58                N/A     2/ 3
$$

.............KEY..............
   WCI - WIND CHILL
   TC  - TEMPERATURE IN CELSIUS
   VSB - VISIBILITY IN MILES
   HX  - HEAT INDEX
   FAIR- INDICATES FEW OR NO CLOUDS BELOW 12,000 FT, WITH NO 
         SIGNIFICANT WEATHER AND/OR OBSTRUCTIONS TO VISIBILITY.